EW9828 Weather Reports


time (UTC)temp
C
wind
direction
speed
KPH
gust
KPH
rain 1hr
cm
rain 24hr
cm
rain mn
cm
humidity
%
barometer
mb
20260510140015 23 360 0.0 0.0 0.00 0.00 0.00 57 1014.7
20260510134510 22 360 0.0 0.0 0.00 0.00 0.00 59 1014.7
20260510133006 21 360 0.0 0.0 0.00 0.00 0.00 65 1014.7
20260510131502 20 360 0.0 0.0 0.00 0.00 0.00 72 1014.7
20260510124556 18 360 0.0 0.0 0.00 0.00 0.00 83 1014.7
20260510123049 16 360 0.0 0.0 0.00 0.00 0.00 88 1014.5
20260510121547 15 360 0.0 0.0 0.00 0.00 0.00 96 1014.3
20260510120046 13 360 0.0 0.0 0.00 0.00 0.00 96 1014.1
20260510114546 13 360 0.0 0.0 0.00 0.00 0.00 96 1013.9
20260510113046 13 360 0.0 0.0 0.00 0.00 0.00 95 1013.7
20260510111551 13 360 0.0 0.0 0.00 0.00 0.00 95 1013.4
20260510110043 13 360 0.0 0.0 0.00 0.00 0.00 95 1013.1
20260510104545 13 360 0.0 0.0 0.00 0.00 0.00 95 1012.8
20260510103034 13 360 0.0 0.0 0.00 0.00 0.00 95 1012.7
20260510101534 13 360 0.0 0.0 0.00 0.00 0.00 95 1012.5
20260510100033 13 360 0.0 0.0 0.00 0.00 0.00 95 1012.4
20260510094533 13 360 0.0 0.0 0.00 0.00 0.00 94 1012.3
20260510093033 13 360 0.0 0.0 0.00 0.00 0.00 94 1012.2
20260510091527 13 360 0.0 0.0 0.00 0.00 0.00 94 1012.2
20260510090024 13 360 0.0 0.0 0.00 0.00 0.00 94 1011.8
20260510084523 14 360 0.0 0.0 0.00 0.00 0.00 94 1011.6
20260510083031 14 360 0.0 0.0 0.00 0.00 0.00 93 1011.5
20260510081535 14 360 0.0 0.0 0.00 0.00 0.00 93 1011.4
20260510080026 14 360 0.0 0.0 0.00 0.00 0.00 94 1011.1
20260510074519 15 360 0.0 0.0 0.00 0.00 0.00 94 1010.9
20260510073018 14 360 0.0 0.0 0.00 0.00 0.00 93 1010.7
20260510071518 15 360 0.0 0.0 0.00 0.00 0.00 93 1010.7
20260510070021 15 360 0.0 0.0 0.00 0.00 0.00 93 1010.9
20260510064514 15 360 0.0 0.0 0.00 0.00 0.00 92 1010.9
20260510063013 15 360 0.0 0.0 0.00 0.00 0.00 91 1011.0
20260510061513 15 360 0.0 0.0 0.00 0.00 0.00 91 1011.1
20260510060007 15 360 0.0 0.0 0.00 0.00 0.00 91 1011.4
20260510054514 15 360 0.0 0.0 0.00 0.00 0.00 91 1011.4
20260510053003 16 360 0.0 0.0 0.00 0.00 0.00 90 1011.4
20260510051504 16 360 0.0 0.0 0.00 0.00 0.00 90 1011.5
20260510050112 16 360 0.0 0.0 0.00 0.00 0.00 89 1011.5
20260510044612 16 360 0.0 0.0 0.00 0.00 0.00 88 1011.6
20260510043101 16 360 0.0 0.0 0.00 0.00 0.00 89 1011.7
20260510041604 16 360 0.0 0.0 0.00 0.00 0.00 88 1011.6
20260510040055 16 360 0.0 0.0 0.00 0.00 0.00 87 1011.5
20260510034557 17 360 0.0 0.0 0.00 0.00 0.00 86 1011.4
20260510033108 17 360 0.0 0.0 0.00 0.00 0.00 85 1011.3
20260510031554 17 360 0.0 0.0 0.00 0.00 0.00 84 1011.1
20260510030110 17 360 0.0 0.0 0.00 0.00 0.00 82 1011.0
20260510024553 18 360 0.0 0.0 0.00 0.00 0.00 81 1011.0
20260510023051 18 360 0.0 0.0 0.00 0.00 0.00 80 1011.0
20260510021552 18 360 0.0 0.0 0.00 0.00 0.00 79 1010.9
20260510020051 19 360 0.0 0.0 0.00 0.00 0.00 78 1010.7
20260510014558 19 360 0.0 0.0 0.00 0.00 0.00 78 1010.3
20260510013050 18 360 0.0 0.0 0.00 0.00 0.00 78 1010.1
20260510011550 18 360 0.0 0.0 0.00 0.00 0.00 78 1009.8
20260510010049 19 360 0.0 0.0 0.00 0.00 0.00 77 1009.5
20260510004549 20 360 0.0 0.0 0.00 0.00 0.00 75 1009.5
20260510003148 20 360 0.0 0.0 0.00 0.00 0.00 74 1009.3
20260510001547 20 360 0.0 0.0 0.00 0.00 0.00 72 1009.3
20260510000053 21 360 0.0 0.0 0.00 0.00 0.00 70 1009.0
20260509234555 21 360 0.0 0.0 0.00 0.00 0.00 70 1009.0
20260509233051 21 360 0.0 0.0 0.00 0.00 0.00 68 1008.9
20260509231549 22 360 0.0 0.0 0.00 0.00 0.00 66 1008.7
20260509230045 22 360 0.0 0.0 0.00 0.00 0.00 63 1008.6
20260509224545 22 360 0.0 0.0 0.00 0.00 0.00 62 1008.5
20260509223047 23 360 0.0 0.0 0.00 0.00 0.00 61 1008.6
20260509221544 23 360 0.0 0.0 0.00 0.00 0.00 61 1008.5
20260509220043 23 360 0.0 0.0 0.00 0.00 0.00 59 1008.5
20260509214545 25 360 0.0 0.0 0.00 0.00 0.00 58 1008.5
20260509213042 25 360 0.0 0.0 0.00 0.00 0.00 57 1008.1
20260509211541 25 360 0.0 0.0 0.00 0.00 0.00 56 1008.2
20260509210041 24 360 0.0 0.0 0.00 0.00 0.00 56 1008.1
20260509204540 25 360 0.0 0.0 0.00 0.00 0.00 57 1008.2
20260509203039 24 360 0.0 0.0 0.00 0.00 0.00 56 1008.1
20260509201547 23 360 0.0 0.0 0.00 0.00 0.00 57 1008.5
20260509200041 24 360 0.0 0.0 0.00 0.00 0.00 56 1008.6
20260509194536 24 360 0.0 0.0 0.00 0.00 0.00 55 1008.6
20260509193038 24 360 0.0 0.0 0.00 0.00 0.00 56 1008.6
20260509191532 23 360 0.0 0.0 0.00 0.00 0.00 57 1008.8
20260509190035 23 360 0.0 0.0 0.00 0.00 0.00 59 1008.9
20260509184538 23 360 0.0 0.0 0.00 0.00 0.00 55 1009.1
20260509183027 25 360 0.0 0.0 0.00 0.00 0.00 53 1009.4
20260509181524 24 360 0.0 0.0 0.00 0.00 0.00 57 1009.6
20260509180020 23 360 0.0 0.0 0.00 0.00 0.00 56 1009.8
20260509174517 23 360 0.0 0.0 0.00 0.00 0.00 57 1009.9
20260509173017 23 360 0.0 0.0 0.00 0.00 0.00 59 1010.0
20260509171521 22 360 0.0 0.0 0.00 0.00 0.00 60 1010.4
20260509170010 22 360 0.0 0.0 0.00 0.00 0.00 58 1010.5
20260509164508 22 360 0.0 0.0 0.00 0.00 0.00 61 1010.6
20260509163009 22 360 0.0 0.0 0.00 0.00 0.00 59 1010.8
20260509161506 22 360 0.0 0.0 0.00 0.00 0.00 60 1010.8
20260509160015 22 360 0.0 0.0 0.00 0.00 0.00 59 1010.7
20260509154503 22 360 0.0 0.0 0.00 0.00 0.00 59 1011.0
20260509153003 22 360 0.0 0.0 0.00 0.00 0.00 60 1011.0
20260509151604 21 360 0.0 0.0 0.00 0.00 0.00 61 1011.0
20260509150114 21 360 0.0 0.0 0.00 0.00 0.00 65 1011.3
20260509144704 21 360 0.0 0.0 0.00 0.00 0.00 64 1011.3
20260509143051 20 360 0.0 0.0 0.00 0.00 0.00 68 1011.6
20260509141546 19 360 0.0 0.0 0.00 0.00 0.00 72 1011.8